QPF
0.00 0.00 0.00 0.00 0.00 0.00 0.00 0.00 0.00 0.00 0.00 0.00 0.00 0.00 0.00 0.00 0.00 0.00 0.00 0.00 0.00 0.00 0.00 0.00 0.01 0.02 0.03 0.03 0.03 0.03 0.03 0.02 0.02 0.02 0.02 0.02 0.02 0.02 0.03 0.02 0.02 0.02 0.02 0.02 0.03 0.03 0.04 0.06 0.06
0.00 0.00 0.00 0.00 0.00 0.00 0.00 0.00 0.00 0.00 0.00 0.00 0.00 0.00 0.00 0.00 0.00 0.00 0.00 0.00 0.00 0.00 0.00 0.00 0.00 0.01 0.01 0.02 0.02 0.02 0.03 0.03 0.02 0.02 0.03 0.03 0.03 0.02 0.03 0.03 0.04 0.02 0.01 0.01 0.02 0.02 0.04 0.04 0.04
0.00 0.00 0.00 0.00 0.00 0.00 0.00 0.00 0.00 0.00 0.00 0.00 0.00 0.00 0.00 0.00 0.00 0.00 0.00 0.00 0.00 0.00 0.00 0.00 0.00 0.01 0.01 0.02 0.03 0.03 0.03 0.04 0.03 0.03 0.02 0.03 0.03 0.04 0.03 0.03 0.03 0.03 0.01 0.01 0.02 0.02 0.03 0.03 0.03
0.00 0.00 0.00 0.00 0.00 0.00 0.00 0.00 0.00 0.00 0.00 0.00 0.00 0.00 0.00 0.00 0.00 0.00 0.00 0.00 0.00 0.00 0.00 0.00 0.00 0.01 0.01 0.01 0.02 0.03 0.03 0.03 0.03 0.02 0.01 0.01 0.02 0.03 0.04 0.03 0.03 0.02 0.02 0.02 0.02 0.02 0.03 0.02 0.02
0.00 0.00 0.00 0.00 0.00 0.00 0.00 0.00 0.00 0.00 0.00 0.00 0.00 0.00 0.00 0.00 0.00 0.00 0.00 0.00 0.00 0.00 0.00 0.00 0.01 0.01 0.01 0.01 0.01 0.02 0.03 0.03 0.02 0.02 0.01 0.01 0.02 0.02 0.03 0.03 0.02 0.02 0.02 0.02 0.03 0.02 0.03 0.02 0.02
0.00 0.00 0.00 0.00 0.00 0.00 0.00 0.00 0.00 0.00 0.00 0.00 0.00 0.00 0.00 0.00 0.00 0.00 0.00 0.00 0.00 0.00 0.00 0.00 0.01 0.01 0.01 0.01 0.01 0.02 0.03 0.04 0.03 0.01 0.01 0.02 0.03 0.04 0.04 0.04 0.03 0.03 0.02 0.02 0.03 0.03 0.03 0.02 0.02
0.00 0.00 0.00 0.00 0.00 0.00 0.00 0.00 0.00 0.00 0.00 0.00 0.00 0.00 0.00 0.00 0.00 0.00 0.00 0.00 0.00 0.00 0.00 0.00 0.01 0.01 0.01 0.01 0.02 0.02 0.03 0.04 0.04 0.02 0.02 0.02 0.02 0.02 0.03 0.03 0.02 0.02 0.02 0.03 0.03 0.03 0.03 0.02 0.02
0.00 0.00 0.00 0.00 0.00 0.00 0.00 0.00 0.00 0.00 0.00 0.00 0.00 0.00 0.00 0.00 0.00 0.00 0.00 0.00 0.00 0.00 0.00 0.00 0.00 0.01 0.01 0.02 0.02 0.02 0.02 0.03 0.04 0.03 0.03 0.03 0.02 0.01 0.01 0.01 0.01 0.01 0.02 0.02 0.03 0.03 0.04 0.03 0.02
0.00 0.00 0.00 0.00 0.00 0.00 0.00 0.00 0.00 0.00 0.00 0.00 0.00 0.00 0.00 0.00 0.00 0.00 0.00 0.00 0.00 0.00 0.00 0.00 0.00 0.01 0.02 0.02 0.02 0.02 0.02 0.02 0.03 0.03 0.03 0.03 0.03 0.02 0.01 0.01 0.01 0.01 0.02 0.02 0.03 0.05 0.05 0.05 0.03
0.00 0.00 0.00 0.00 0.00 0.00 0.00 0.00 0.00 0.00 0.00 0.00 0.00 0.00 0.00 0.00 0.00 0.00 0.00 0.00 0.00 0.00 0.00 0.00 0.00 0.01 0.02 0.02 0.03 0.04 0.03 0.02 0.02 0.02 0.02 0.02 0.01 0.01 0.02 0.01 0.01 0.01 0.02 0.03 0.04 0.04 0.05 0.05 0.04
0.00 0.00 0.00 0.00 0.00 0.00 0.00 0.00 0.00 0.00 0.00 0.00 0.00 0.00 0.00 0.00 0.00 0.00 0.00 0.00 0.00 0.00 0.00 0.00 0.00 0.01 0.01 0.02 0.03 0.03 0.04 0.04 0.03 0.02 0.02 0.02 0.01 0.01 0.01 0.01 0.01 0.01 0.02 0.03 0.05 0.06 0.06 0.05 0.04
0.00 0.00 0.00 0.00 0.00 0.00 0.00 0.00 0.00 0.00 0.00 0.00 0.00 0.00 0.00 0.00 0.00 0.00 0.00 0.00 0.00 0.00 0.00 0.00 0.00 0.00 0.01 0.01 0.02 0.03 0.03 0.03 0.04 0.02 0.02 0.01 0.01 0.01 0.01 0.01 0.01 0.01 0.01 0.02 0.05 0.07 0.08 0.08 0.06
0.00 0.00 0.00 0.00 0.00 0.00 0.00 0.00 0.00 0.00 0.00 0.00 0.00 0.00 0.00 0.00 0.00 0.00 0.00 0.00 0.00 0.00 0.00 0.00 0.00 0.00 0.00 0.01 0.01 0.02 0.02 0.02 0.02 0.03 0.02 0.01 0.01 0.01 0.01 0.00 0.00 0.01 0.01 0.01 0.03 0.04 0.05 0.07 0.08
0.00 0.00 0.00 0.00 0.00 0.00 0.00 0.00 0.00 0.00 0.00 0.00 0.00 0.00 0.00 0.00 0.00 0.00 0.00 0.00 0.00 0.00 0.00 0.00 0.00 0.00 0.00 0.00 0.01 0.01 0.02 0.02 0.02 0.02 0.02 0.02 0.02 0.02 0.01 0.01 0.00 0.01 0.01 0.02 0.02 0.03 0.04 0.05 0.05
0.00 0.00 0.00 0.00 0.00 0.00 0.00 0.00 0.00 0.00 0.00 0.00 0.00 0.00 0.00 0.00 0.00 0.00 0.00 0.00 0.00 0.00 0.00 0.00 0.00 0.00 0.00 0.00 0.00 0.01 0.01 0.01 0.02 0.02 0.02 0.02 0.03 0.04 0.03 0.02 0.01 0.01 0.01 0.01 0.02 0.03 0.03 0.04 0.04
0.00 0.00 0.00 0.00 0.00 0.00 0.00 0.00 0.00 0.00 0.00 0.00 0.00 0.00 0.00 0.00 0.00 0.00 0.00 0.00 0.00 0.00 0.00 0.00 0.00 0.00 0.00 0.00 0.00 0.01 0.01 0.01 0.01 0.02 0.02 0.02 0.02 0.03 0.04 0.04 0.03 0.02 0.02 0.01 0.02 0.02 0.03 0.03 0.04
0.00 0.00 0.00 0.00 0.00 0.00 0.00 0.00 0.00 0.00 0.00 0.00 0.00 0.00 0.00 0.00 0.00 0.00 0.00 0.00 0.00 0.00 0.00 0.00 0.00 0.00 0.00 0.00 0.00 0.00 0.01 0.01 0.01 0.01 0.01 0.02 0.02 0.02 0.03 0.04 0.04 0.03 0.02 0.02 0.02 0.02 0.02 0.03 0.03
0.00 0.00 0.00 0.00 0.00 0.00 0.00 0.00 0.00 0.00 0.00 0.00 0.00 0.00 0.00 0.00 0.00 0.00 0.00 0.00 0.00 0.00 0.00 0.00 0.00 0.00 0.00 0.00 0.00 0.00 0.00 0.01 0.01 0.01 0.01 0.01 0.02 0.02 0.02 0.03 0.05 0.05 0.03 0.02 0.02 0.03 0.02 0.02 0.03
0.00 0.00 0.00 0.00 0.00 0.00 0.00 0.00 0.00 0.00 0.00 0.00 0.00 0.00 0.00 0.00 0.00 0.00 0.00 0.00 0.00 0.00 0.00 0.00 0.00 0.00 0.00 0.00 0.00 0.00 0.00 0.01 0.01 0.01 0.01 0.02 0.03 0.04 0.05 0.04 0.04 0.06 0.05 0.03 0.02 0.02 0.03 0.03 0.03
0.00 0.00 0.00 0.00 0.00 0.00 0.00 0.00 0.00 0.00 0.00 0.00 0.00 0.00 0.00 0.00 0.00 0.00 0.00 0.00 0.00 0.00 0.00 0.00 0.00 0.00 0.00 0.00 0.00 0.00 0.00 0.01 0.01 0.01 0.02 0.04 0.05 0.06 0.06 0.06 0.05 0.04 0.03 0.03 0.02 0.02 0.03 0.03 0.03
0.00 0.00 0.00 0.00 0.00 0.00 0.00 0.00 0.00 0.00 0.00 0.00 0.00 0.00 0.00 0.00 0.00 0.00 0.00 0.00 0.00 0.00 0.00 0.00 0.00 0.01 0.01 0.01 0.00 0.01 0.01 0.01 0.01 0.02 0.03 0.03 0.03 0.04 0.04 0.03 0.03 0.03 0.03 0.02 0.02 0.02 0.02 0.03 0.04
0.00 0.00 0.00 0.00 0.00 0.00 0.00 0.00 0.00 0.00 0.00 0.00 0.00 0.00 0.00 0.00 0.00 0.00 0.00 0.00 0.00 0.00 0.00 0.00 0.00 0.01 0.02 0.02 0.01 0.01 0.01 0.01 0.01 0.01 0.02 0.01 0.01 0.02 0.02 0.02 0.02 0.02 0.02 0.03 0.03 0.02 0.02 0.03 0.03
0.00 0.00 0.00 0.00 0.00 0.00 0.00 0.00 0.00 0.00 0.00 0.00 0.00 0.00 0.00 0.00 0.00 0.00 0.00 0.00 0.00 0.00 0.00 0.00 0.00 0.01 0.01 0.03 0.03 0.01 0.01 0.01 0.01 0.01 0.01 0.00 0.01 0.01 0.01 0.02 0.02 0.02 0.02 0.03 0.03 0.03 0.03 0.03 0.03
0.00 0.00 0.00 0.00 0.00 0.00 0.00 0.00 0.00 0.00 0.00 0.00 0.00 0.00 0.00 0.00 0.00 0.00 0.00 0.00 0.00 0.00 0.00 0.00 0.00 0.00 0.01 0.02 0.02 0.02 0.02 0.01 0.01 0.00 0.00 0.00 0.01 0.01 0.01 0.01 0.02 0.03 0.03 0.03 0.03 0.04 0.03 0.03 0.04
0.00 0.00 0.01 0.00 0.00 0.00 0.00 0.00 0.00 0.00 0.00 0.00 0.00 0.00 0.00 0.00 0.00 0.00 0.00 0.00 0.00 0.00 0.00 0.00 0.00 0.00 0.00 0.01 0.01 0.01 0.01 0.01 0.01 0.00 0.00 0.01 0.01 0.02 0.02 0.03 0.04 0.04 0.04 0.03 0.03 0.04 0.04 0.05 0.06
0.00 0.00 0.00 0.00 0.00 0.00 0.00 0.00 0.00 0.00 0.00 0.00 0.00 0.00 0.00 0.00 0.00 0.00 0.00 0.00 0.00 0.00 0.00 0.00 0.00 0.00 0.00 0.00 0.01 0.01 0.02 0.02 0.01 0.01 0.01 0.01 0.02 0.02 0.02 0.03 0.04 0.04 0.05 0.05 0.04 0.04 0.04 0.06 0.07
0.00 0.00 0.00 0.01 0.00 0.00 0.00 0.00 0.00 0.00 0.00 0.00 0.00 0.00 0.00 0.00 0.00 0.00 0.00 0.00 0.00 0.00 0.01 0.01 0.01 0.01 0.01 0.01 0.01 0.03 0.04 0.03 0.02 0.01 0.02 0.02 0.03 0.03 0.03 0.03 0.03 0.03 0.04 0.04 0.04 0.04 0.04 0.05 0.06
0.00 0.01 0.01 0.01 0.01 0.00 0.00 0.00 0.00 0.00 0.00 0.00 0.00 0.00 0.00 0.00 0.00 0.00 0.00 0.00 0.00 0.00 0.00 0.00 0.01 0.01 0.01 0.01 0.02 0.02 0.03 0.03 0.02 0.02 0.02 0.02 0.02 0.02 0.02 0.02 0.03 0.03 0.03 0.03 0.04 0.03 0.03 0.04 0.06
0.01 0.01 0.01 0.01 0.01 0.00 0.00 0.00 0.00 0.00 0.00 0.00 0.00 0.00 0.00 0.00 0.00 0.00 0.00 0.00 0.00 0.00 0.00 0.00 0.00 0.00 0.00 0.00 0.01 0.01 0.01 0.02 0.02 0.02 0.01 0.01 0.01 0.01 0.02 0.02 0.02 0.03 0.03 0.03 0.04 0.04 0.03 0.04 0.06
0.01 0.01 0.02 0.03 0.02 0.01 0.00 0.00 0.00 0.00 0.00 0.00 0.00 0.00 0.00 0.00 0.00 0.00 0.00 0.00 0.00 0.00 0.00 0.00 0.00 0.00 0.00 0.00 0.00 0.01 0.02 0.03 0.03 0.02 0.01 0.01 0.01 0.01 0.02 0.02 0.02 0.02 0.02 0.02 0.03 0.03 0.04 0.05 0.07
MSLP
1012.11 1012.23 1012.31 1012.32 1012.23 1012.02 1011.72 1011.38 1011.04 1010.77 1010.63 1010.66 1010.84 1011.17 1011.58 1012.01 1012.41 1012.73 1012.95 1013.08 1013.15 1013.23 1013.34 1013.53 1013.79 1014.10 1014.43 1014.71 1014.90 1014.99 1014.97 1014.87 1014.72 1014.59 1014.49 1014.46 1014.48 1014.54 1014.60 1014.64 1014.62 1014.56 1014.47 1014.37 1014.28 1014.21 1014.15 1014.10 1014.02
1012.15 1012.24 1012.28 1012.23 1012.07 1011.81 1011.46 1011.09 1010.76 1010.52 1010.44 1010.54 1010.80 1011.19 1011.65 1012.12 1012.52 1012.82 1013.02 1013.12 1013.19 1013.26 1013.39 1013.61 1013.91 1014.27 1014.64 1014.96 1015.19 1015.31 1015.31 1015.22 1015.08 1014.96 1014.87 1014.84 1014.86 1014.91 1014.97 1015.00 1014.99 1014.94 1014.87 1014.79 1014.72 1014.67 1014.62 1014.56 1014.45
1012.18 1012.24 1012.23 1012.12 1011.90 1011.59 1011.22 1010.84 1010.53 1010.35 1010.34 1010.52 1010.86 1011.32 1011.83 1012.32 1012.73 1013.03 1013.21 1013.30 1013.35 1013.42 1013.56 1013.80 1014.12 1014.50 1014.89 1015.23 1015.48 1015.62 1015.65 1015.59 1015.49 1015.39 1015.33 1015.32 1015.34 1015.39 1015.44 1015.45 1015.43 1015.37 1015.29 1015.21 1015.14 1015.09 1015.03 1014.95 1014.81
1012.18 1012.20 1012.14 1011.98 1011.72 1011.38 1011.01 1010.65 1010.39 1010.27 1010.34 1010.59 1011.00 1011.51 1012.07 1012.59 1013.01 1013.31 1013.49 1013.58 1013.64 1013.72 1013.86 1014.10 1014.42 1014.80 1015.19 1015.53 1015.79 1015.94 1016.00 1015.98 1015.93 1015.88 1015.86 1015.87 1015.92 1015.96 1015.99 1015.98 1015.92 1015.83 1015.72 1015.62 1015.52 1015.45 1015.37 1015.27 1015.11
1012.11 1012.10 1012.00 1011.81 1011.53 1011.19 1010.84 1010.53 1010.32 1010.27 1010.41 1010.72 1011.19 1011.75 1012.33 1012.87 1013.30 1013.62 1013.82 1013.93 1014.01 1014.11 1014.26 1014.51 1014.82 1015.19 1015.55 1015.87 1016.12 1016.28 1016.36 1016.38 1016.38 1016.39 1016.41 1016.46 1016.52 1016.57 1016.57 1016.53 1016.43 1016.30 1016.14 1015.99 1015.86 1015.75 1015.64 1015.52 1015.35
1011.99 1011.95 1011.82 1011.62 1011.34 1011.02 1010.71 1010.45 1010.31 1010.33 1010.52 1010.89 1011.39 1011.97 1012.56 1013.11 1013.56 1013.90 1014.12 1014.28 1014.40 1014.54 1014.72 1014.98 1015.29 1015.63 1015.97 1016.26 1016.49 1016.64 1016.73 1016.78 1016.82 1016.87 1016.94 1017.02 1017.10 1017.14 1017.14 1017.06 1016.92 1016.74 1016.54 1016.34 1016.16 1016.01 1015.86 1015.71 1015.52
1011.82 1011.76 1011.62 1011.41 1011.14 1010.86 1010.60 1010.40 1010.33 1010.40 1010.64 1011.04 1011.55 1012.13 1012.72 1013.26 1013.73 1014.09 1014.36 1014.56 1014.75 1014.94 1015.17 1015.45 1015.77 1016.10 1016.41 1016.67 1016.87 1017.00 1017.09 1017.15 1017.22 1017.30 1017.40 1017.51 1017.59 1017.64 1017.61 1017.51 1017.34 1017.12 1016.87 1016.63 1016.41 1016.22 1016.04 1015.86 1015.65
1011.64 1011.56 1011.41 1011.20 1010.95 1010.71 1010.50 1010.36 1010.34 1010.46 1010.73 1011.13 1011.64 1012.20 1012.77 1013.31 1013.77 1014.16 1014.48 1014.75 1015.00 1015.27 1015.56 1015.88 1016.21 1016.54 1016.83 1017.06 1017.23 1017.35 1017.43 1017.49 1017.56 1017.66 1017.77 1017.88 1017.97 1018.01 1017.97 1017.85 1017.66 1017.42 1017.15 1016.88 1016.63 1016.41 1016.20 1015.99 1015.75
1011.49 1011.39 1011.22 1011.01 1010.78 1010.56 1010.39 1010.31 1010.33 1010.48 1010.75 1011.15 1011.63 1012.17 1012.71 1013.23 1013.70 1014.12 1014.48 1014.82 1015.15 1015.48 1015.84 1016.20 1016.57 1016.90 1017.19 1017.41 1017.56 1017.66 1017.72 1017.78 1017.85 1017.94 1018.04 1018.15 1018.23 1018.25 1018.21 1018.08 1017.89 1017.64 1017.37 1017.09 1016.83 1016.58 1016.34 1016.10 1015.83
1011.39 1011.27 1011.08 1010.86 1010.63 1010.43 1010.29 1010.23 1010.27 1010.43 1010.70 1011.08 1011.53 1012.04 1012.55 1013.06 1013.53 1013.97 1014.38 1014.78 1015.17 1015.58 1015.99 1016.41 1016.81 1017.17 1017.46 1017.68 1017.83 1017.92 1017.98 1018.02 1018.08 1018.15 1018.24 1018.32 1018.38 1018.39 1018.34 1018.22 1018.03 1017.80 1017.54 1017.27 1017.01 1016.75 1016.48 1016.20 1015.89
1011.33 1011.19 1010.98 1010.75 1010.52 1010.32 1010.18 1010.12 1010.17 1010.32 1010.58 1010.93 1011.35 1011.82 1012.31 1012.80 1013.29 1013.75 1014.20 1014.65 1015.11 1015.57 1016.04 1016.51 1016.94 1017.32 1017.64 1017.87 1018.03 1018.13 1018.19 1018.23 1018.27 1018.33 1018.39 1018.45 1018.48 1018.48 1018.42 1018.30 1018.13 1017.92 1017.69 1017.44 1017.18 1016.91 1016.62 1016.29 1015.92
1011.28 1011.13 1010.91 1010.66 1010.42 1010.22 1010.07 1010.00 1010.03 1010.16 1010.39 1010.71 1011.10 1011.54 1012.02 1012.51 1013.01 1013.50 1013.99 1014.49 1014.99 1015.50 1016.01 1016.51 1016.98 1017.39 1017.73 1017.99 1018.17 1018.29 1018.36 1018.41 1018.45 1018.49 1018.53 1018.56 1018.57 1018.55 1018.48 1018.37 1018.22 1018.04 1017.83 1017.59 1017.34 1017.06 1016.73 1016.36 1015.93
1011.20 1011.04 1010.82 1010.58 1010.34 1010.13 1009.97 1009.88 1009.88 1009.97 1010.16 1010.44 1010.80 1011.23 1011.70 1012.21 1012.73 1013.25 1013.78 1014.32 1014.86 1015.40 1015.94 1016.46 1016.95 1017.38 1017.75 1018.04 1018.26 1018.41 1018.51 1018.58 1018.63 1018.67 1018.69 1018.71 1018.70 1018.66 1018.59 1018.48 1018.34 1018.17 1017.98 1017.75 1017.50 1017.19 1016.82 1016.39 1015.90
1011.02 1010.88 1010.69 1010.47 1010.25 1010.04 1009.88 1009.76 1009.72 1009.77 1009.91 1010.15 1010.48 1010.89 1011.37 1011.89 1012.45 1013.01 1013.59 1014.16 1014.73 1015.30 1015.85 1016.38 1016.88 1017.33 1017.72 1018.05 1018.30 1018.50 1018.64 1018.75 1018.82 1018.87 1018.89 1018.90 1018.88 1018.83 1018.75 1018.64 1018.51 1018.35 1018.15 1017.92 1017.64 1017.31 1016.89 1016.40 1015.84
1010.73 1010.64 1010.50 1010.33 1010.15 1009.97 1009.79 1009.66 1009.57 1009.56 1009.64 1009.83 1010.13 1010.53 1011.01 1011.56 1012.16 1012.78 1013.40 1014.01 1014.62 1015.20 1015.76 1016.30 1016.80 1017.26 1017.67 1018.02 1018.32 1018.57 1018.76 1018.90 1019.01 1019.09 1019.13 1019.14 1019.12 1019.06 1018.98 1018.87 1018.72 1018.55 1018.35 1018.10 1017.79 1017.41 1016.95 1016.40 1015.78
1010.34 1010.32 1010.26 1010.17 1010.05 1009.90 1009.73 1009.55 1009.41 1009.33 1009.34 1009.47 1009.73 1010.11 1010.60 1011.18 1011.83 1012.50 1013.18 1013.84 1014.48 1015.08 1015.66 1016.20 1016.70 1017.17 1017.60 1017.98 1018.32 1018.61 1018.85 1019.04 1019.19 1019.30 1019.37 1019.39 1019.38 1019.33 1019.24 1019.12 1018.97 1018.79 1018.56 1018.29 1017.95 1017.53 1017.02 1016.42 1015.75
1009.90 1009.97 1010.01 1010.01 1009.95 1009.83 1009.66 1009.45 1009.23 1009.07 1008.99 1009.04 1009.24 1009.60 1010.10 1010.71 1011.41 1012.14 1012.88 1013.59 1014.27 1014.91 1015.50 1016.05 1016.57 1017.04 1017.49 1017.90 1018.27 1018.61 1018.90 1019.14 1019.33 1019.48 1019.58 1019.63 1019.63 1019.59 1019.50 1019.38 1019.22 1019.03 1018.78 1018.49 1018.12 1017.67 1017.13 1016.49 1015.78
1009.50 1009.66 1009.80 1009.88 1009.88 1009.78 1009.58 1009.30 1009.00 1008.72 1008.54 1008.50 1008.64 1008.96 1009.46 1010.11 1010.85 1011.65 1012.45 1013.23 1013.96 1014.64 1015.26 1015.84 1016.37 1016.87 1017.34 1017.78 1018.18 1018.56 1018.89 1019.17 1019.41 1019.60 1019.73 1019.81 1019.83 1019.80 1019.73 1019.61 1019.45 1019.25 1019.00 1018.69 1018.32 1017.86 1017.30 1016.65 1015.91
1009.19 1009.44 1009.67 1009.82 1009.85 1009.73 1009.47 1009.10 1008.67 1008.27 1007.96 1007.81 1007.88 1008.17 1008.66 1009.34 1010.13 1010.99 1011.87 1012.72 1013.51 1014.24 1014.91 1015.52 1016.08 1016.61 1017.11 1017.58 1018.03 1018.44 1018.81 1019.13 1019.41 1019.63 1019.79 1019.89 1019.94 1019.94 1019.88 1019.78 1019.63 1019.44 1019.20 1018.91 1018.54 1018.09 1017.54 1016.90 1016.16
1009.03 1009.36 1009.64 1009.82 1009.84 1009.66 1009.30 1008.80 1008.22 1007.66 1007.22 1006.97 1006.96 1007.21 1007.70 1008.40 1009.25 1010.18 1011.12 1012.04 1012.90 1013.69 1014.41 1015.07 1015.69 1016.26 1016.81 1017.32 1017.80 1018.25 1018.65 1019.01 1019.31 1019.56 1019.75 1019.88 1019.96 1019.98 1019.95 1019.88 1019.76 1019.59 1019.38 1019.11 1018.77 1018.36 1017.84 1017.22 1016.50
1009.00 1009.39 1009.70 1009.87 1009.82 1009.54 1009.04 1008.37 1007.62 1006.91 1006.33 1005.97 1005.89 1006.11 1006.61 1007.34 1008.24 1009.23 1010.24 1011.23 1012.15 1013.01 1013.80 1014.52 1015.19 1015.82 1016.42 1016.99 1017.51 1018.00 1018.43 1018.81 1019.14 1019.41 1019.62 1019.78 1019.88 1019.94 1019.94 1019.90 1019.81 1019.68 1019.51 1019.28 1018.99 1018.62 1018.16 1017.58 1016.89
1009.04 1009.47 1009.79 1009.90 1009.75 1009.33 1008.66 1007.81 1006.89 1006.02 1005.32 1004.87 1004.74 1004.95 1005.46 1006.22 1007.17 1008.21 1009.28 1010.33 1011.32 1012.24 1013.09 1013.88 1014.62 1015.32 1015.98 1016.60 1017.17 1017.69 1018.16 1018.56 1018.90 1019.19 1019.43 1019.61 1019.74 1019.83 1019.87 1019.87 1019.82 1019.73 1019.59 1019.40 1019.16 1018.84 1018.43 1017.90 1017.25
1009.06 1009.53 1009.82 1009.85 1009.58 1009.00 1008.16 1007.14 1006.06 1005.06 1004.26 1003.76 1003.61 1003.81 1004.35 1005.15 1006.14 1007.22 1008.34 1009.43 1010.47 1011.44 1012.35 1013.20 1014.00 1014.77 1015.50 1016.17 1016.80 1017.36 1017.85 1018.28 1018.64 1018.95 1019.20 1019.41 1019.57 1019.69 1019.77 1019.80 1019.78 1019.72 1019.61 1019.46 1019.24 1018.96 1018.59 1018.11 1017.50
1008.97 1009.45 1009.71 1009.66 1009.27 1008.55 1007.56 1006.40 1005.20 1004.11 1003.26 1002.73 1002.58 1002.81 1003.38 1004.21 1005.22 1006.34 1007.48 1008.59 1009.66 1010.66 1011.61 1012.52 1013.39 1014.22 1015.01 1015.74 1016.41 1017.02 1017.54 1017.99 1018.37 1018.69 1018.97 1019.20 1019.40 1019.55 1019.66 1019.72 1019.72 1019.67 1019.58 1019.42 1019.21 1018.94 1018.59 1018.13 1017.56
1008.67 1009.18 1009.41 1009.30 1008.82 1007.99 1006.90 1005.64 1004.38 1003.26 1002.40 1001.89 1001.77 1002.03 1002.63 1003.48 1004.51 1005.62 1006.76 1007.87 1008.94 1009.96 1010.93 1011.88 1012.80 1013.68 1014.53 1015.32 1016.04 1016.68 1017.23 1017.70 1018.11 1018.45 1018.75 1019.02 1019.24 1019.43 1019.56 1019.64 1019.65 1019.60 1019.48 1019.30 1019.07 1018.77 1018.40 1017.95 1017.40
1008.16 1008.68 1008.90 1008.75 1008.22 1007.34 1006.21 1004.93 1003.67 1002.57 1001.76 1001.30 1001.22 1001.53 1002.15 1003.00 1004.02 1005.11 1006.21 1007.29 1008.33 1009.34 1010.33 1011.30 1012.25 1013.18 1014.08 1014.91 1015.67 1016.35 1016.93 1017.43 1017.86 1018.23 1018.56 1018.86 1019.12 1019.33 1019.49 1019.58 1019.58 1019.50 1019.34 1019.11 1018.81 1018.45 1018.04 1017.57 1017.02
1007.46 1008.00 1008.22 1008.06 1007.53 1006.65 1005.54 1004.31 1003.11 1002.09 1001.36 1000.98 1000.97 1001.31 1001.93 1002.77 1003.74 1004.77 1005.81 1006.83 1007.83 1008.81 1009.78 1010.77 1011.75 1012.72 1013.65 1014.53 1015.32 1016.03 1016.64 1017.16 1017.61 1018.02 1018.38 1018.71 1019.01 1019.26 1019.43 1019.52 1019.51 1019.39 1019.16 1018.85 1018.46 1018.02 1017.54 1017.02 1016.46
1006.64 1007.19 1007.42 1007.28 1006.77 1005.95 1004.92 1003.79 1002.71 1001.81 1001.19 1000.90 1000.96 1001.32 1001.93 1002.73 1003.62 1004.57 1005.52 1006.46 1007.39 1008.33 1009.29 1010.28 1011.28 1012.28 1013.24 1014.15 1014.98 1015.71 1016.35 1016.90 1017.38 1017.80 1018.20 1018.57 1018.90 1019.17 1019.36 1019.45 1019.41 1019.24 1018.95 1018.55 1018.06 1017.52 1016.96 1016.38 1015.78
1005.81 1006.34 1006.57 1006.45 1006.00 1005.27 1004.35 1003.36 1002.43 1001.69 1001.19 1001.00 1001.11 1001.48 1002.06 1002.79 1003.59 1004.43 1005.28 1006.13 1007.00 1007.89 1008.83 1009.81 1010.83 1011.85 1012.85 1013.79 1014.65 1015.41 1016.06 1016.63 1017.13 1017.59 1018.01 1018.40 1018.76 1019.05 1019.25 1019.33 1019.27 1019.05 1018.69 1018.21 1017.63 1017.00 1016.35 1015.70 1015.06
1005.05 1005.53 1005.74 1005.63 1005.23 1004.59 1003.80 1002.97 1002.20 1001.61 1001.25 1001.15 1001.30 1001.68 1002.22 1002.86 1003.57 1004.30 1005.04 1005.80 1006.60 1007.45 1008.37 1009.36 1010.39 1011.45 1012.48 1013.45 1014.33 1015.11 1015.79 1016.38 1016.89 1017.36 1017.80 1018.20 1018.57 1018.87 1019.08 1019.14 1019.06 1018.80 1018.39 1017.84 1017.19 1016.48 1015.76 1015.05 1014.37
Thickness
5701 5705 5710 5710 5707 5708 5715 5725 5729 5726 5728 5733 5737 5740 5742 5740 5737 5730 5731 5738 5739 5739 5738 5736 5736 5736 5737 5738 5738 5739 5739 5739 5739 5740 5740 5740 5741 5741 5741 5741 5740 5740 5740 5740 5741 5741 5741 5740 5739
5698 5702 5703 5703 5701 5704 5714 5723 5722 5725 5727 5727 5728 5732 5732 5730 5730 5729 5729 5731 5733 5734 5733 5732 5731 5731 5732 5732 5733 5733 5733 5734 5734 5734 5735 5735 5736 5736 5736 5736 5736 5735 5735 5736 5736 5736 5736 5735 5735
5694 5697 5698 5697 5698 5709 5715 5718 5721 5719 5720 5721 5721 5724 5726 5723 5724 5725 5726 5726 5728 5728 5728 5726 5725 5726 5726 5727 5727 5728 5728 5728 5728 5729 5729 5730 5730 5731 5731 5731 5731 5730 5730 5731 5731 5731 5731 5730 5730
5690 5690 5691 5692 5697 5707 5711 5714 5713 5712 5712 5715 5718 5716 5717 5717 5719 5721 5721 5722 5723 5724 5723 5721 5720 5720 5721 5721 5722 5722 5722 5723 5723 5723 5723 5724 5724 5725 5725 5725 5725 5725 5725 5725 5725 5726 5726 5725 5725
5685 5687 5683 5686 5694 5702 5706 5707 5708 5709 5710 5711 5713 5712 5709 5709 5713 5715 5715 5717 5718 5718 5717 5715 5713 5714 5714 5715 5715 5716 5716 5717 5717 5717 5718 5718 5718 5718 5719 5719 5719 5720 5719 5719 5719 5720 5720 5720 5720
5678 5682 5681 5686 5693 5696 5700 5701 5703 5705 5706 5705 5706 5707 5704 5705 5707 5707 5709 5710 5711 5710 5710 5709 5707 5707 5708 5709 5709 5710 5710 5710 5711 5711 5711 5711 5711 5711 5712 5713 5713 5713 5713 5713 5714 5714 5714 5714 5714
5673 5674 5681 5687 5688 5689 5693 5697 5699 5701 5700 5701 5704 5702 5700 5700 5701 5702 5703 5703 5704 5703 5703 5704 5703 5702 5702 5702 5703 5703 5704 5704 5704 5704 5704 5704 5704 5705 5705 5705 5706 5706 5707 5707 5707 5707 5707 5707 5707
5672 5672 5673 5678 5681 5685 5688 5688 5691 5695 5695 5696 5698 5698 5697 5696 5695 5695 5696 5696 5696 5697 5697 5697 5698 5697 5697 5697 5697 5697 5697 5697 5697 5697 5697 5697 5698 5698 5698 5698 5698 5698 5699 5699 5700 5700 5700 5700 5700
5663 5662 5670 5676 5677 5681 5681 5681 5682 5684 5687 5686 5689 5693 5693 5691 5688 5688 5689 5689 5689 5690 5690 5691 5692 5691 5691 5692 5691 5691 5691 5691 5691 5691 5691 5691 5692 5692 5692 5691 5690 5691 5691 5691 5692 5692 5693 5693 5694
5655 5658 5669 5672 5675 5675 5674 5676 5676 5677 5679 5680 5681 5681 5682 5682 5682 5683 5684 5685 5684 5684 5684 5685 5685 5685 5685 5685 5685 5685 5685 5685 5685 5685 5685 5685 5685 5685 5684 5683 5683 5683 5683 5683 5684 5684 5685 5686 5688
5651 5656 5661 5661 5664 5665 5666 5667 5670 5673 5674 5679 5680 5677 5676 5676 5677 5679 5680 5681 5680 5680 5678 5678 5678 5678 5678 5678 5679 5679 5679 5679 5679 5679 5678 5678 5677 5677 5677 5676 5676 5676 5676 5676 5676 5677 5678 5679 5680
5644 5648 5650 5653 5652 5655 5658 5660 5662 5667 5673 5676 5676 5674 5672 5672 5673 5674 5675 5675 5675 5673 5672 5672 5672 5671 5671 5672 5672 5672 5672 5672 5672 5672 5671 5670 5670 5669 5668 5668 5668 5668 5668 5668 5668 5669 5670 5671 5672
5637 5640 5641 5643 5644 5647 5649 5652 5655 5661 5665 5666 5666 5665 5667 5668 5669 5670 5670 5670 5669 5667 5666 5666 5665 5665 5664 5664 5664 5665 5665 5665 5665 5664 5663 5662 5661 5661 5660 5659 5659 5659 5659 5660 5660 5661 5662 5663 5663
5633 5633 5634 5637 5639 5641 5642 5647 5648 5658 5659 5658 5658 5660 5662 5663 5664 5664 5663 5663 5663 5662 5661 5660 5659 5659 5658 5658 5658 5658 5658 5657 5657 5656 5655 5654 5653 5653 5651 5651 5650 5651 5650 5650 5651 5652 5653 5654 5655
5623 5624 5628 5632 5633 5635 5635 5640 5648 5655 5653 5653 5655 5657 5657 5658 5658 5659 5659 5658 5658 5657 5655 5654 5653 5652 5652 5651 5651 5651 5650 5650 5649 5648 5647 5646 5645 5644 5643 5643 5642 5642 5641 5641 5642 5643 5643 5644 5646
5616 5619 5625 5630 5628 5628 5628 5643 5651 5649 5648 5650 5652 5654 5653 5653 5654 5654 5653 5653 5652 5651 5649 5648 5646 5645 5645 5645 5644 5644 5644 5643 5642 5641 5640 5638 5637 5636 5635 5635 5634 5633 5632 5631 5632 5633 5634 5635 5637
5611 5619 5626 5625 5622 5622 5625 5638 5644 5641 5642 5646 5649 5650 5650 5650 5649 5649 5648 5647 5646 5645 5644 5642 5640 5639 5639 5638 5637 5637 5637 5636 5636 5634 5632 5630 5629 5628 5627 5626 5625 5624 5623 5622 5622 5623 5623 5625 5626
5613 5618 5619 5621 5618 5616 5621 5631 5636 5635 5636 5642 5645 5646 5646 5646 5646 5645 5644 5642 5640 5639 5638 5636 5635 5633 5632 5631 5631 5630 5630 5629 5628 5627 5625 5623 5621 5619 5618 5617 5616 5614 5613 5611 5611 5612 5612 5613 5614
5608 5609 5613 5614 5609 5610 5618 5625 5632 5634 5634 5638 5642 5643 5643 5643 5642 5640 5638 5636 5635 5633 5632 5631 5629 5627 5625 5625 5624 5624 5624 5623 5622 5621 5618 5615 5613 5611 5610 5608 5607 5605 5603 5602 5601 5600 5601 5602 5602
5594 5598 5603 5602 5599 5603 5611 5619 5629 5633 5634 5638 5640 5641 5641 5639 5637 5634 5633 5631 5630 5628 5626 5625 5624 5621 5619 5618 5617 5616 5616 5616 5615 5613 5610 5608 5606 5604 5602 5600 5599 5596 5594 5592 5591 5589 5589 5589 5590
5586 5593 5598 5596 5592 5595 5600 5618 5630 5633 5632 5633 5636 5637 5638 5636 5634 5631 5628 5627 5625 5623 5621 5619 5617 5615 5613 5611 5609 5608 5608 5608 5607 5605 5603 5601 5599 5596 5594 5592 5590 5588 5586 5584 5582 5580 5578 5578 5578
5581 5584 5584 5584 5588 5597 5596 5613 5632 5632 5629 5630 5632 5633 5634 5633 5631 5628 5624 5623 5620 5618 5615 5613 5611 5609 5607 5604 5604 5603 5603 5603 5601 5599 5596 5594 5591 5589 5587 5585 5583 5581 5578 5576 5573 5570 5568 5568 5568
5573 5571 5573 5577 5581 5584 5591 5593 5626 5624 5626 5632 5633 5631 5630 5628 5626 5624 5621 5618 5615 5612 5609 5606 5604 5603 5601 5599 5598 5597 5596 5596 5594 5592 5590 5587 5585 5582 5580 5578 5577 5574 5571 5568 5564 5561 5559 5559 5559
5558 5560 5562 5566 5572 5575 5594 5595 5620 5626 5629 5631 5630 5626 5624 5622 5620 5618 5615 5612 5609 5606 5602 5600 5598 5597 5595 5593 5592 5590 5589 5588 5587 5585 5583 5581 5578 5576 5574 5571 5569 5567 5564 5560 5556 5553 5551 5550 5550
5553 5559 5559 5561 5564 5584 5586 5589 5614 5623 5622 5623 5622 5620 5618 5616 5614 5612 5609 5606 5603 5600 5597 5594 5593 5592 5589 5587 5586 5584 5582 5581 5579 5578 5576 5573 5571 5569 5567 5565 5562 5560 5557 5554 5550 5546 5544 5543 5543
5553 5561 5567 5573 5584 5592 5572 5588 5612 5612 5611 5611 5612 5612 5610 5608 5607 5605 5603 5601 5598 5595 5592 5590 5588 5586 5583 5581 5580 5578 5576 5573 5572 5570 5568 5566 5564 5562 5560 5557 5555 5552 5550 5547 5543 5540 5538 5536 5535
5544 5551 5559 5563 5565 5577 5589 5593 5601 5604 5604 5604 5604 5603 5602 5601 5599 5598 5596 5594 5592 5590 5587 5585 5582 5580 5578 5575 5573 5572 5569 5567 5565 5563 5561 5559 5557 5554 5552 5550 5548 5545 5542 5540 5537 5534 5532 5530 5529
5537 5544 5543 5552 5563 5578 5590 5592 5603 5599 5600 5599 5597 5596 5595 5593 5592 5590 5589 5587 5585 5583 5580 5578 5576 5574 5572 5569 5567 5565 5562 5560 5557 5555 5553 5552 5550 5548 5546 5543 5541 5539 5536 5533 5531 5529 5526 5524 5522
5524 5527 5537 5547 5557 5574 5586 5596 5597 5595 5592 5591 5590 5588 5586 5585 5584 5583 5581 5579 5577 5575 5573 5571 5570 5568 5565 5562 5559 5557 5554 5552 5549 5547 5546 5544 5543 5541 5539 5537 5535 5533 5531 5528 5526 5523 5520 5518 5517
5520 5528 5532 5541 5543 5553 5572 5584 5582 5582 5580 5579 5579 5578 5577 5576 5576 5575 5573 5571 5570 5569 5567 5564 5562 5560 5558 5555 5552 5549 5546 5544 5541 5539 5537 5536 5535 5534 5532 5530 5529 5528 5525 5523 5521 5518 5515 5513 5511